CAPE
573 717 896 1597 1566 1644 1752 1764 1655 1440 1327 1386 1259 1141 1413 1345 1420 1568 1710 1830 1961 2047 2128 2042 1932 1890 1979 1947 1975 1913 1898 1879 1894 1908 1818 1661 1452 1404 1412 1379 1377 1352 1274 1087 915 849 829 728 614 567 606 319 153 211 163 472 340 336 563 536 478 358 415 674 633 568 554 515 694 1020 969 875 566 332 307 202 76 50 100 142 244 261 145 113 86
619 767 1069 1443 1615 1781 1706 1716 1630 1415 1190 1282 1299 1299 1335 1427 1576 1618 1846 1963 2128 2114 2114 2083 2039 1991 1967 1922 2030 1982 1911 1856 1904 1908 1860 1715 1501 1440 1421 1414 1332 1278 1153 951 910 891 858 720 621 507 364 326 337 164 148 210 269 316 412 396 444 451 475 494 516 334 450 508 657 683 637 681 675 341 278 81 61 74 98 122 118 79 192 91 26
676 893 1183 1440 1584 1685 1768 1642 1526 1217 1203 1200 1166 1463 1437 1536 1593 1796 1954 2104 2158 2130 2047 2128 2040 1998 1954 1918 1978 1920 1918 1918 1894 1972 1942 1732 1500 1434 1412 1397 1342 1182 875 850 842 865 767 757 644 474 436 358 163 98 203 292 274 286 292 236 442 548 542 671 774 797 761 890 975 857 597 611 565 574 499 352 295 253 100 69 64 36 13 6 4
844 1081 1223 1393 1594 1802 1808 1570 1465 1325 1306 1186 1278 1397 1398 1683 1773 1945 2088 2055 1983 1939 1973 2007 2034 2025 1987 2043 2053 1977 1954 1956 1905 1857 1857 1701 1541 1486 1448 1488 1412 1297 793 701 691 795 814 836 692 594 442 249 117 211 249 399 549 538 569 544 469 479 422 311 295 377 532 536 499 335 318 58 416 378 280 245 159 58 51 72 50 59 66 10 17
1042 1121 1190 1236 1352 1761 1731 1605 1448 1239 1312 1230 1391 1302 1598 1819 1970 2036 1996 1932 1976 2044 2038 1989 1971 2029 1967 1977 1975 1954 1973 1898 1873 1852 1814 1745 1703 1643 1605 1585 1478 1302 943 960 1050 1050 1004 779 701 539 344 202 178 282 216 404 363 492 596 505 408 360 314 356 331 236 184 279 239 90 0 16 116 201 231 200 175 105 92 80 47 21 28 31 43
1120 1011 1036 1242 1388 1658 1657 1540 1263 1170 1191 1291 1462 1560 1726 1904 1880 2024 1984 2031 2005 2027 2008 2020 2001 2022 2040 2074 2030 2052 1961 1916 1846 1796 1756 1807 1734 1783 1611 1335 1297 1107 1106 1137 1076 1159 958 805 732 541 344 273 308 282 327 356 432 456 549 539 592 592 417 424 767 626 188 205 205 10 0 5 34 251 174 136 157 153 105 71 61 51 40 44 33
1008 952 1048 1185 1255 1524 1685 1400 1136 1224 1222 1226 1515 1728 1773 1795 1875 1935 1969 2036 2077 2156 2070 2139 2065 2064 2080 2002 2083 2037 2021 1965 1885 1828 1779 1764 1721 1644 1626 1669 1431 1370 1217 1060 982 945 1072 943 797 675 422 382 364 389 368 359 395 385 362 441 503 485 465 435 516 676 502 211 3 1 0 8 152 249 370 317 280 111 60 108 88 44 52 53 43
930 1009 1038 1044 1237 1618 1547 1265 1188 1139 1288 1470 1569 1805 1833 1791 1895 1957 1982 2062 2115 2090 2078 2122 2140 2070 2065 2033 2066 2027 1974 1952 1849 1693 1626 1649 1628 1658 1636 1652 1459 1355 1190 1029 1022 865 919 536 646 733 567 548 543 459 376 489 525 570 534 459 490 510 476 469 575 595 658 352 14 3 0 28 324 325 220 334 280 252 221 161 104 38 53 50 47
949 862 853 1081 1264 1563 1394 1179 1139 1265 1336 1412 1510 1755 1809 1915 1925 2005 2037 2065 2132 2138 2177 2156 2108 2073 2001 2016 1980 2045 1961 1902 1757 1651 1614 1775 1577 1380 1258 1134 1035 905 943 927 831 883 956 928 859 845 691 696 665 743 701 651 628 762 720 720 692 828 801 959 1076 1128 1195 859 749 3 0 176 373 366 419 173 203 193 144 143 512 101 56 55 72
892 769 891 1075 1287 1448 1240 1163 1183 1204 1224 1329 1452 1700 1810 1949 2107 2072 2186 2083 2092 2168 2120 2184 2148 2014 1960 1992 1953 1918 1909 1942 1920 1836 1615 1466 1530 1497 1508 1306 1047 1048 1148 1163 1117 1122 1019 1037 1022 858 797 854 935 821 989 1070 1120 1135 1027 929 1032 1150 1173 1307 1068 1272 758 691 470 0 82 474 328 387 395 194 186 242 208 119 191 80 98 76 72
962 812 916 1022 1240 1401 1257 1245 1155 1206 1224 1312 1588 1791 1949 2039 2164 2118 2134 2097 2113 2168 2151 2141 2036 1953 2030 1960 1901 1915 1849 1814 1819 1802 1693 1700 1650 1617 1431 1354 1398 1286 893 1076 1098 1125 1160 1090 1140 1187 1057 1015 1022 1082 938 1129 1228 1335 1085 1072 1171 1287 1345 1111 660 0 187 443 106 0 282 715 315 299 543 278 136 126 109 108 137 111 110 93 87
1154 940 928 997 1326 1380 1348 1305 1235 1333 1332 1455 1736 1958 2091 2050 2088 2191 2197 2133 2186 2184 2142 2018 1994 1915 1962 1903 1913 1831 1713 1759 1599 1505 1417 1442 1325 1340 1212 948 985 866 811 856 985 1091 1174 1084 1372 1318 1402 1379 1276 1169 1272 1209 1319 1334 1267 1235 1379 1392 1313 1202 142 0 37 450 0 11 188 783 96 100 622 450 331 218 210 181 137 123 106 86 69
1247 1100 988 1157 1293 1382 1356 1381 1343 1347 1450 1656 1884 2038 2088 2125 2174 2167 2150 2179 2138 2117 2094 1996 1920 1919 1893 1854 1761 1666 1604 1494 1429 1342 1236 1224 1230 1034 990 1032 863 866 936 992 1059 1122 1146 1175 1236 1346 1360 1263 1339 1390 1406 1390 1386 1412 1281 1308 1436 1436 1550 1110 42 0 27 508 15 277 219 535 60 263 667 501 409 221 228 244 176 137 106 56 36
1197 1223 1076 1147 1104 1304 1386 1504 1414 1366 1581 1692 2009 2102 2158 2276 2213 2232 2154 2093 2054 1963 1920 1887 1886 1810 1750 1732 1636 1528 1395 1266 1270 1169 1122 998 909 898 816 809 801 781 798 868 999 1012 1174 1248 1271 1380 1350 1447 1381 1370 1236 1373 1450 1490 1388 1352 1478 1476 1534 904 308 3 33 431 167 115 424 465 38 334 746 614 496 289 293 284 191 145 125 74 49
1355 1298 1124 943 1130 1018 1386 1506 1451 1578 1983 2097 2147 2208 2235 2266 2205 2131 2082 2006 1971 1866 1888 1865 1829 1766 1687 1587 1470 1352 1272 1141 1106 1032 899 849 749 712 560 510 539 611 563 635 770 867 920 1056 1268 1212 1184 1328 1336 1268 1588 1534 1614 1594 1445 1323 1442 1488 1746 482 284 19 40 129 216 524 438 61 152 458 782 768 612 444 349 333 211 148 132 80 32
1507 1310 1142 847 927 1163 1123 1241 1460 1842 2114 2127 2134 2156 2174 2167 2100 2067 2011 1949 1892 1908 1801 1737 1740 1663 1467 1382 1313 1296 1202 1168 1013 866 690 691 635 505 411 433 473 504 590 583 579 687 785 967 1045 1197 1216 1150 1138 1412 1532 1570 1698 1736 1526 1305 1102 1588 1936 801 236 11 17 188 55 340 126 17 231 639 888 843 715 574 446 378 262 203 132 82 42
1298 1056 1108 743 958 983 1024 1068 1299 1927 2053 2077 2103 2160 2198 2082 2058 1970 1924 1960 1890 1851 1800 1736 1642 1484 1418 1394 1318 1211 1197 1001 828 844 794 830 734 568 577 442 412 419 372 448 504 447 535 694 874 1119 1166 1094 1316 1472 1563 1598 1754 1632 1764 1459 1557 1580 1889 990 370 129 0 44 70 128 8 22 302 695 1013 718 826 720 552 506 360 242 148 77 62
754 708 738 823 797 882 985 1184 1421 1683 1854 1841 2253 2024 2097 2110 2060 1955 1923 1890 1859 1786 1652 1701 1635 1571 1511 1411 1315 1197 1017 986 1016 949 903 728 760 717 672 593 519 610 502 709 562 449 387 406 711 948 751 996 1104 1262 1333 1459 1560 1759 1144 1403 1625 1805 1793 781 33 424 156 171 160 142 61 85 254 753 1084 1132 931 822 649 640 498 385 231 280 322
754 886 992 978 1051 1155 1298 1528 1502 1708 1799 1843 1877 2049 2102 2127 1955 1979 1790 1777 1790 1795 1769 1624 1581 1517 1300 1286 1281 1312 1137 1150 1041 917 856 790 704 692 766 680 710 721 714 846 853 884 621 442 525 647 770 928 1075 1131 1240 1213 1196 1410 1514 1496 1685 2097 1062 121 39 268 465 493 219 41 31 166 360 671 1180 1255 1144 1062 802 763 726 608 271 309 324
966 1121 1210 1331 1381 1418 1517 1554 1598 1646 1597 1652 1792 1931 2021 2065 1914 1956 1852 1687 1712 1758 1675 1589 1675 1514 1380 1266 1338 1294 1248 1187 1129 1081 872 781 818 889 804 771 682 800 792 987 1033 1081 1190 1030 887 618 450 470 693 912 687 628 628 830 926 1627 1950 1484 60 0 4 361 483 468 513 508 372 216 379 636 1242 1358 1407 1302 1076 853 857 708 559 297 336
1007 1227 1331 1332 1443 1448 1534 1556 1530 1494 1580 1595 1711 1882 1927 1993 1778 1781 1832 1717 1602 1604 1697 1504 1470 1595 1714 1411 1259 1086 1032 971 839 457 1078 1087 999 878 820 777 876 900 1095 1086 1218 1317 1346 1306 1328 1401 1370 1017 715 499 121 231 412 639 924 1276 932 485 545 560 527 541 462 405 718 505 489 438 673 807 1184 1386 1550 1595 1394 1161 1010 790 662 602 456
994 1230 1438 1486 1546 1507 1537 1510 1393 1485 1546 1561 1664 1772 1851 1769 1634 1620 1508 1420 1366 1332 1319 1426 1319 1316 1578 1258 1114 1112 1009 850 798 1200 957 1185 952 1044 1014 955 1069 1199 1286 1325 1229 1185 1266 1257 1168 1204 1377 1312 740 0 0 0 0 83 370 407 376 339 342 371 416 463 542 631 578 496 545 693 904 1171 1204 1328 1498 1693 1583 1390 1244 1094 933 851 691
772 1115 1294 1442 1467 1399 1410 1415 1476 1480 1517 1550 1583 1718 1633 1461 1490 1384 1342 1487 1398 1391 1334 1333 1156 1184 1078 1150 990 946 905 756 851 1089 1481 1460 1281 1190 1186 1259 1299 1215 1275 1027 950 1032 1048 1000 921 1108 972 451 0 0 0 0 95 187 182 42 0 0 8 50 50 45 413 575 704 620 1024 1079 1045 1353 1478 1455 1510 1724 1688 1540 1324 1285 1196 1070 894
617 1086 1066 1240 1238 1253 1272 1308 1434 1482 1444 1499 1587 1572 1358 1340 1265 1167 1243 1254 1345 1059 1146 1128 1053 1148 1086 1098 1034 879 904 939 1187 1492 1576 1125 743 645 923 916 851 932 983 247 461 838 845 740 710 636 58 0 0 0 0 0 0 380 427 0 0 0 2 32 54 44 353 468 521 769 1180 1356 1430 1341 1496 1573 1567 1839 1966 1799 1648 1497 1391 1200 1073
656 956 942 994 1038 1078 1088 1142 1315 1487 1383 1450 1576 1425 1279 1234 1126 923 1136 1232 1300 844 910 1032 1135 1164 1339 1110 996 871 849 1005 1131 1004 1208 1195 861 726 667 814 640 614 534 72 643 854 700 623 606 651 626 613 596 541 702 682 650 555 525 471 223 0 7 68 206 267 325 378 347 620 891 1286 1608 1558 1684 1637 1678 1942 2231 1901 1714 1505 1303 925 914
534 688 774 847 856 857 972 1059 1286 1382 1328 1361 1485 1407 1329 1050 994 752 1011 1098 1204 793 892 1133 1278 1252 1114 1041 1021 1056 1063 1024 1145 1236 1323 1250 751 542 707 586 555 579 458 370 562 796 676 622 672 873 948 963 839 695 652 635 615 611 602 638 544 492 446 435 347 353 426 561 578 594 1082 1537 1707 1572 2005 1880 1647 1904 2169 1298 1216 997 1043 980 860
533 604 723 734 716 671 855 1087 1248 1242 1263 1321 1342 1243 1140 1063 933 682 794 825 1089 971 877 854 1033 1228 1312 1157 1050 1068 1036 1186 1137 1155 1014 592 541 714 590 497 569 571 412 423 609 723 675 653 707 801 872 883 772 682 660 682 671 627 626 637 653 665 680 715 766 779 795 824 864 814 963 1485 1502 1744 1956 2056 1870 1695 1125 639 820 743 761 696 715
396 434 569 615 654 629 766 1027 1168 1132 1166 1206 1171 1177 1029 928 769 933 760 576 784 821 938 763 764 1142 1214 1136 1058 907 811 745 660 750 729 548 788 741 668 532 514 522 503 561 688 710 671 649 681 684 710 670 665 653 646 643 646 611 591 584 618 633 662 688 697 725 834 915 936 876 1288 1535 1606 1766 1982 1454 809 479 544 557 573 593 579 696 731
283 342 422 511 583 652 788 970 1026 1046 1014 1012 974 1050 843 797 755 972 854 1129 702 792 973 879 887 1037 1168 1204 998 791 650 766 985 931 727 784 526 617 467 501 537 563 601 623 714 719 682 631 665 645 640 648 637 652 658 628 637 620 604 581 565 582 586 590 617 639 656 695 814 754 827 871 1113 1308 982 768 1012 846 865 791 707 780 850 883 807
296 274 391 461 516 671 780 916 931 943 951 982 982 866 712 719 728 817 858 1189 1014 869 1065 1063 961 1108 1151 1159 950 933 1191 1273 1374 1159 921 679 507 526 592 550 542 629 610 638 661 679 636 633 600 610 565 566 571 576 602 621 614 612 588 541 509 474 435 425 408 377 355 387 430 529 630 747 877 896 948 890 828 1060 876 761 787 858 838 843 906
381 372 401 451 548 708 799 865 922 942 960 958 983 893 767 749 801 915 971 1110 1076 1064 1011 1048 1079 1260 1214 1058 1131 1164 1022 1291 1336 1217 985 728 589 631 669 595 568 558 583 674 776 704 658 643 645 591 572 516 488 428 414 399 421 402 370 323 315 271 258 234 198 224 268 322 377 443 513 621 702 768 757 712 599 594 872 965 1062 1105 1220 1070 954
515 421 378 467 572 670 750 848 836 857 917 964 1022 988 911 844 898 934 957 1035 1067 1016 1027 1063 1127 1199 1133 1187 1357 1333 1107 1176 1273 1104 684 603 513 680 641 688 686 578 580 636 694 698 684 642 625 578 522 436 371 316 252 131 169 164 198 224 210 192 95 8 2 132 214 253 301 360 432 517 600 624 595 535 426 440 561 1017 846 1047 1169 1213 984
615 530 600 501 568 643 711 824 869 876 885 963 1005 966 880 895 874 833 886 959 982 1019 1042 1020 1077 1084 936 1067 1134 1196 1243 1279 1196 820 613 493 496 592 701 671 582 564 558 552 547 570 542 513 432 378 298 253 206 0 0 0 0 0 0 0 0 0 0 0 0 0 30 205 258 323 389 437 507 502 428 354 336 383 420 454 484 496 515 524 963
658 719 746 574 556 668 699 786 841 903 904 857 854 841 713 763 817 843 892 899 933 959 976 957 920 872 798 967 1085 1161 1144 1040 919 762 577 661 714 712 622 534 526 519 528 527 540 440 394 312 239 223 47 0 0 0 0 0 0 0 0 0 0 0 0 0 0 0 0 153 207 267 305 358 391 368 335 307 280 286 307 325 336 394 408 376 369
667 866 872 708 573 677 711 738 767 768 781 679 552 569 584 670 771 789 792 831 858 892 919 920 880 812 851 964 1057 1103 992 847 750 721 670 759 752 710 588 476 456 420 404 368 360 362 308 235 210 178 0 0 0 0 0 0 0 0 0 0 0 0 0 0 0 0 0 0 165 248 289 333 338 304 274 258 264 247 227 232 248 272 313 354 349
872 991 972 847 767 698 665 692 640 586 576 586 443 509 566 645 653 697 744 789 834 865 860 866 827 771 915 914 1022 1045 978 838 757 793 739 699 676 654 602 574 496 498 404 381 352 328 297 282 234 185 0 0 0 0 0 0 0 0 0 0 0 0 0 0 0 0 0 0 110 193 223 277 320 321 295 284 224 15 0 0 0 0 0 120 255
1057 1110 1051 936 881 792 741 756 610 508 482 297 359 530 575 582 652 754 810 835 869 844 798 742 724 796 877 906 941 1004 905 798 790 766 691 579 525 520 566 523 492 479 389 347 338 298 281 238 190 46 0 0 0 0 0 0 0 0 0 0 0 0 0 0 0 0 0 0 0 0 0 171 52 201 229 255 268 111 7 0 0 0 0 0 0
1225 1267 1196 1015 940 849 840 778 627 732 576 332 408 530 574 636 719 814 862 864 823 790 736 733 755 770 862 900 935 916 846 800 796 746 698 615 545 415 428 430 410 402 394 386 358 320 257 192 0 0 0 0 0 0 0 0 0 0 0 0 0 0 0 0 0 0 0 0 0 0 0 0 78 202 215 236 262 247 256 90 0 0 0 0 0
1422 1478 1374 1161 999 915 909 679 713 736 559 325 464 517 596 667 722 771 785 781 729 683 669 676 739 616 774 809 819 876 854 839 784 771 732 735 654 494 455 454 419 388 389 377 327 271 207 147 0 0 0 0 0 0 0 0 0 0 0 0 0 0 0 0 0 0 0 0 0 0 0 0 0 0 0 100 103 108 0 0 0 0 0 0 0
1506 1562 1414 1313 1118 1024 811 772 739 659 386 396 487 527 544 593 627 625 646 655 617 626 673 660 598 588 667 710 751 776 774 766 770 722 663 615 570 538 500 470 441 408 367 340 278 194 98 0 0 0 0 0 0 0 0 0 0 0 0 0 0 0 0 0 0 0 0 0 0 0 0 0 0 0 0 0 0 0 0 0 0 0 0 0 0
1558 1568 1213 1216 1160 1045 873 859 708 571 576 516 519 524 520 516 540 556 535 586 621 633 664 574 607 599 622 659 688 668 655 648 615 583 578 556 488 429 379 343 330 384 418 359 251 167 0 0 0 0 0 0 0 0 0 0 0 0 0 0 0 0 0 0 0 0 0 0 0 0 0 0 0 0 0 0 0 0 0 0 0 0 0 0 0
1588 1570 1438 1276 1181 994 938 827 697 480 544 534 534 540 591 592 588 632 651 662 721 692 647 585 638 589 621 679 685 723 662 662 607 555 514 481 517 495 444 380 351 344 332 290 172 0 0 0 0 0 0 0 0 0 0 0 0 0 0 0 0 0 0 0 0 0 0 0 0 0 0 0 0 0 0 0 0 0 0 0 0 0 0 0 0
1518 1436 1468 1248 1065 926 810 722 620 567 604 630 639 670 687 735 744 726 740 667 616 597 544 553 524 517 586 624 644 618 584 544 520 492 454 463 415 351 301 288 272 290 213 136 0 0 0 0 0 0 0 0 0 0 0 0 0 0 0 0 0 0 0 0 0 0 0 0 0 0 0 0 0 0 0 0 0 0 0 0 0 0 0 0 0
1426 1354 1270 1083 975 755 640 438 532 606 662 708 751 775 797 812 812 810 776 698 548 528 497 435 524 412 408 517 555 519 496 492 533 520 448 333 215 148 123 11 3 0 0 0 0 0 0 0 0 0 0 0 0 0 0 0 0 0 0 0 0 0 0 0 0 0 0 0 0 0 0 0 0 0 0 0 0 0 0 0 0 0 0 0 0
1449 1114 1001 837 788 689 580 544 549 608 664 718 778 816 841 880 874 852 826 708 544 543 463 451 499 361 426 466 497 512 566 578 564 492 317 210 135 2 0 0 0 0 0 0 0 0 0 0 0 0 0 0 0 0 0 0 0 0 0 0 0 0 0 0 0 0 0 0 0 0 0 0 0 0 0 0 0 0 0 0 0 0 0 0 0
1239 1064 913 837 742 577 604 616 643 682 735 798 832 860 899 955 933 906 742 667 575 486 464 454 319 344 427 428 505 531 598 544 390 188 0 0 0 0 0 0 0 0 0 0 0 0 0 0 0 0 0 0 0 0 0 0 0 0 0 0 0 0 0 0 0 0 0 0 0 0 0 0 0 0 0 0 0 0 0 0 0 0 0 0 0
1174 1026 841 734 578 616 677 700 744 755 859 982 990 988 990 1018 1007 947 716 645 587 421 318 345 363 365 438 472 536 544 482 254 50 0 0 0 0 0 0 0 0 0 0 0 0 0 0 0 0 0 0 0 0 0 0 0 0 0 0 0 0 0 0 0 0 0 0 0 0 0 0 0 0 0 0 0 0 0 0 0 0 0 0 0 0
1108 908 777 611 648 725 783 806 730 751 912 1021 1076 1090 1018 1093 1086 947 824 738 634 384 237 297 344 442 517 560 560 459 238 0 0 54 0 0 0 0 0 0 0 0 0 0 0 0 0 0 0 0 0 0 0 0 0 0 0 0 0 0 0 0 0 0 0 0 0 0 0 0 0 0 0 0 0 0 0 0 0 0 0 0 0 0 0
956 832 659 605 676 756 828 847 618 600 882 1012 1067 1057 967 989 1001 944 814 726 586 392 298 317 357 397 511 533 415 254 160 0 91 29 0 0 0 0 0 0 0 0 0 0 0 0 0 0 0 0 0 0 0 0 0 0 0 0 0 0 0 0 0 0 0 0 0 0 0 0 0 0 0 0 0 0 0 0 0 0 0 0 0 0 0
893 814 682 578 624 691 665 657 709 711 889 1034 1038 964 895 963 1027 898 775 626 500 431 381 339 389 470 473 388 312 229 0 0 0 0 0 0 0 0 0 0 0 0 0 0 0 0 0 0 0 0 0 0 0 0 0 0 0 0 0 0 0 0 0 0 0 0 0 0 0 0 0 0 0 0 0 0 0 0 0 0 0 0 0 0 0
944 866 735 666 672 764 738 669 783 856 932 832 844 901 938 938 914 861 713 527 492 469 416 431 506 461 352 338 297 36 0 0 0 0 0 0 0 0 0 0 0 0 0 0 0 0 0 0 0 0 0 0 0 0 0 0 0 0 0 0 0 0 0 0 0 0 0 0 0 0 0 0 0 0 0 0 0 0 0 0 0 0 0 0 0
Wind_Speed
25 30 25 34 37 38 40 41 40 39 39 39 40 40 39 36 33 30 27 25 23 23 23 24 23 22 21 22 23 23 23 23 23 25 25 23 21 20 18 17 16 16 16 17 17 16 16 15 14 13 12 11 12 13 13 13 11 12 12 12 11 10 11 11 10 10 10 10 11 12 12 12 13 13 12 13 nan nan 15 15 13 11 12 16 nan
31 27 25 30 36 38 41 41 40 40 39 39 40 40 39 36 33 31 28 26 24 23 24 24 24 23 22 22 22 23 23 23 24 24 25 24 22 20 19 18 16 16 16 16 16 16 16 15 15 13 12 13 14 14 15 14 13 13 13 13 12 13 12 11 10 10 10 9 9 9 10 11 13 14 14 nan nan nan nan 15 15 nan 12 nan nan
27 26 26 31 38 40 40 41 41 40 39 39 40 40 39 37 35 32 29 26 24 24 24 24 24 24 22 22 22 23 23 23 24 25 25 24 23 21 19 17 17 17 16 16 15 15 15 15 15 14 13 14 15 nan 15 15 15 14 15 15 13 13 12 10 9 9 8 8 8 8 9 11 12 14 16 16 16 16 16 nan nan nan nan nan nan
29 26 28 35 40 38 39 42 41 41 40 40 39 39 39 38 35 32 30 27 25 25 24 24 24 23 22 22 22 23 23 23 24 24 24 23 23 22 20 17 16 17 16 15 15 15 15 15 15 15 14 16 17 17 17 17 15 14 13 12 13 13 12 11 10 10 9 10 10 8 7 nan 10 14 14 16 17 nan nan nan nan nan nan nan nan
27 27 28 31 32 36 39 41 41 41 41 40 40 41 42 40 36 32 30 28 26 25 24 23 24 23 22 22 22 22 22 23 23 24 23 22 22 22 20 18 17 16 15 14 14 15 15 15 15 16 16 17 18 18 17 16 16 14 13 13 13 13 13 13 13 12 11 11 11 nan nan nan 9 14 15 16 16 16 nan nan nan nan nan nan nan
27 25 25 28 29 33 40 41 42 42 42 42 41 42 42 41 38 34 31 29 26 25 25 24 24 23 22 22 22 22 22 22 23 22 21 21 21 22 21 19 18 16 14 13 13 13 14 14 15 16 17 18 18 17 16 15 14 13 13 14 14 11 11 14 14 11 12 12 11 nan nan nan nan 11 16 16 18 17 15 nan nan nan nan nan nan
27 24 26 29 29 32 38 40 43 43 44 43 42 42 43 42 39 35 32 29 27 26 24 23 23 23 22 22 22 22 22 22 23 22 21 21 22 22 22 20 18 16 13 12 11 11 12 13 14 15 16 17 17 16 15 15 15 15 14 14 13 12 11 11 11 7 12 12 nan nan nan nan 10 11 17 16 16 16 nan 15 nan nan nan nan nan
25 25 27 29 29 35 39 41 43 43 45 44 43 43 43 42 39 35 32 30 27 26 25 23 23 23 22 21 22 22 22 22 22 22 22 22 21 20 20 20 18 16 14 12 10 10 9 11 13 14 14 14 14 13 14 14 15 15 14 14 13 13 12 12 10 10 12 13 nan nan nan nan 11 13 18 18 17 16 16 16 17 nan nan nan nan
27 27 28 29 30 39 39 40 42 44 45 45 44 43 43 42 39 35 33 30 28 26 24 23 23 23 22 21 23 23 22 22 22 22 21 20 20 20 19 19 17 16 15 12 10 10 9 9 11 12 12 11 10 10 11 12 12 12 12 12 11 11 9 9 9 11 11 12 13 nan nan 10 13 14 18 18 17 16 16 15 15 18 nan nan nan
28 30 29 28 30 40 39 40 42 44 45 44 44 43 43 41 39 36 33 31 29 26 25 23 23 23 22 21 22 23 22 22 22 21 21 21 21 21 20 18 16 15 14 12 10 10 10 9 9 10 9 8 7 8 9 9 10 10 10 10 10 9 8 7 8 9 11 12 13 nan nan 12 12 14 16 18 17 17 18 19 17 nan nan nan nan
32 31 30 29 30 38 37 38 41 42 44 44 43 42 42 41 38 35 33 32 30 26 24 23 23 23 22 21 23 23 22 22 21 20 20 20 20 20 19 17 16 14 12 11 9 9 10 9 9 9 8 7 6 7 8 8 8 8 8 8 7 6 5 5 7 nan 11 13 13 nan 12 16 13 12 17 19 19 19 20 20 20 19 19 nan nan
35 32 29 28 34 36 37 38 40 41 42 42 41 42 41 39 38 34 32 31 29 25 23 22 22 22 22 21 22 22 21 21 20 20 19 19 19 19 18 17 16 14 12 9 8 8 8 8 8 8 7 7 6 7 7 8 8 8 7 6 5 4 4 5 8 nan nan 13 nan nan 12 12 nan 12 16 20 21 20 21 21 21 20 20 nan nan
36 31 29 28 30 36 36 38 40 41 42 42 41 41 39 38 36 33 32 29 27 24 22 21 21 21 20 21 21 21 20 20 19 18 18 18 18 17 17 17 15 13 10 8 7 6 7 7 7 7 7 7 6 7 8 8 8 8 7 5 4 4 4 6 nan nan nan 13 nan 14 14 13 nan 13 16 20 21 21 21 22 22 23 23 nan nan
36 31 28 29 30 39 38 37 39 41 41 40 40 38 37 35 34 32 31 28 25 23 21 21 21 21 20 20 20 20 19 19 18 18 18 18 18 17 16 15 14 12 9 7 5 5 5 6 7 7 8 7 6 6 7 8 8 8 7 6 4 3 5 5 9 nan nan 13 13 15 15 16 nan 15 18 21 22 22 23 23 23 24 25 nan nan
35 30 29 29 31 33 41 38 38 40 38 38 37 36 35 34 32 30 29 28 25 22 21 21 20 20 20 21 20 20 20 19 19 18 17 17 17 17 16 15 13 12 9 6 4 4 4 5 7 7 8 7 6 5 6 8 9 8 7 6 4 3 4 7 8 nan nan 13 14 15 16 nan 17 17 19 21 23 23 23 24 24 24 25 nan nan
30 27 29 27 27 29 31 37 38 39 38 38 36 35 35 33 32 30 29 27 23 21 21 20 19 19 20 20 19 19 19 19 19 19 18 17 16 16 15 14 13 11 9 6 4 3 3 4 6 7 7 6 5 5 5 7 8 7 6 6 5 3 2 8 7 nan nan 14 nan 16 17 nan 19 18 20 21 23 23 23 24 25 24 24 nan nan
28 26 26 26 26 26 28 28 30 37 36 36 34 34 33 31 30 29 28 27 24 22 20 20 19 18 19 19 19 19 19 18 18 18 18 17 16 16 15 14 12 11 10 8 6 4 3 4 5 6 7 6 5 4 4 5 5 5 5 4 4 5 4 7 8 10 nan nan nan 16 nan nan 19 20 21 21 23 24 24 24 24 24 24 nan nan
26 25 26 26 27 26 24 24 24 26 27 30 31 32 31 30 28 28 27 26 24 22 20 20 19 18 18 18 18 18 18 17 17 17 17 17 16 15 15 14 12 11 10 9 8 7 5 4 4 6 6 6 5 4 3 2 1 2 2 4 4 4 6 6 nan 9 12 14 15 15 nan nan 20 21 22 22 23 24 24 25 25 25 25 25 25
27 27 26 27 27 25 22 20 21 23 23 22 21 25 29 28 28 28 27 26 24 22 21 19 19 18 18 18 17 17 17 17 16 16 16 16 16 14 15 13 12 10 9 9 8 8 6 5 4 5 6 5 5 4 2 2 2 2 0 2 3 4 7 8 nan 8 10 13 16 nan nan 18 21 21 23 23 24 25 25 25 26 26 26 26 25
32 31 30 28 26 25 22 20 21 21 21 19 20 20 26 28 28 27 26 25 24 22 21 20 19 18 19 18 16 14 15 13 15 13 15 15 15 15 14 14 11 9 7 6 6 6 5 5 5 5 4 4 4 3 2 1 2 3 2 1 3 7 nan nan nan 9 11 12 15 16 18 21 21 22 23 24 25 26 26 26 26 26 26 26 25
34 33 32 29 26 24 23 20 20 21 20 19 18 19 22 27 25 26 25 24 22 22 21 20 19 18 17 17 14 13 13 12 12 12 13 13 14 13 14 13 12 9 7 6 5 4 4 4 5 5 4 3 2 1 1 2 2 3 3 2 4 8 10 11 11 11 11 12 14 16 18 20 22 23 24 24 25 26 26 27 27 27 27 26 25
35 34 30 26 24 24 22 20 19 20 18 16 16 17 18 21 18 17 17 19 20 21 19 17 18 15 18 16 14 12 11 11 10 11 11 11 12 12 12 12 12 9 7 5 4 4 4 4 5 5 4 3 3 nan nan nan nan nan 2 2 3 7 10 9 9 9 11 12 14 15 17 19 21 22 24 24 24 25 26 27 27 27 27 26 23
35 33 28 25 23 22 21 21 19 19 18 16 15 15 17 17 17 17 16 18 18 19 19 19 18 17 16 16 15 12 12 10 9 9 11 12 11 12 12 11 11 10 8 6 4 4 5 5 4 4 5 4 nan nan nan nan nan 1 0 nan nan nan nan nan nan nan 11 12 13 14 15 17 19 20 22 22 23 24 25 26 27 27 26 24 23
34 33 28 26 24 20 20 20 19 19 17 16 16 16 17 17 16 16 16 16 18 20 20 19 18 18 16 15 15 13 12 11 8 8 11 11 11 10 11 12 12 11 8 6 4 3 5 5 5 5 nan nan nan nan nan nan nan 3 4 nan nan nan nan nan nan nan 13 13 13 12 13 15 18 19 21 22 22 22 23 24 24 24 23 23 22
34 37 32 27 24 21 20 19 19 18 18 17 18 18 19 19 16 15 16 17 18 19 21 21 20 19 18 15 14 14 13 13 12 11 12 10 10 9 10 10 11 10 9 nan 5 3 3 4 4 5 5 3 3 3 3 3 5 5 6 6 6 nan nan nan 10 11 13 14 13 11 12 14 17 19 20 21 21 21 22 21 18 17 17 16 16
33 38 35 29 25 22 21 19 20 19 19 19 20 22 22 19 18 16 17 17 18 19 21 22 22 20 18 15 14 15 14 14 14 14 13 11 9 8 9 9 10 11 10 8 5 4 3 4 5 6 5 5 5 4 5 6 5 6 7 7 8 8 8 9 11 12 13 14 13 10 12 14 18 18 18 20 20 20 21 17 15 9 14 14 13
26 27 27 24 23 21 21 19 20 21 22 21 22 22 22 18 17 17 18 16 17 20 22 23 23 21 19 16 16 15 15 15 15 15 15 14 11 9 9 8 9 11 10 10 7 5 4 5 6 7 7 8 7 7 7 7 7 7 8 8 9 9 10 10 12 13 14 15 15 11 13 14 15 17 17 18 20 18 17 17 19 15 14 13 12
20 20 20 21 19 19 20 20 18 19 20 20 21 20 20 17 16 16 16 16 17 19 22 23 24 23 21 18 18 16 15 15 14 14 15 16 14 12 10 9 9 11 11 11 9 7 7 7 8 9 10 10 10 9 8 8 8 9 9 10 10 11 11 12 13 13 15 16 16 14 14 15 16 16 16 17 20 20 22 22 18 15 15 16 14
19 18 19 22 20 18 20 20 19 18 17 17 16 16 17 15 13 14 15 15 17 19 22 24 24 23 23 20 19 17 16 15 15 15 16 17 17 15 12 11 10 11 12 12 11 10 9 9 9 10 12 12 12 11 10 10 10 10 10 11 12 12 12 13 14 14 16 18 18 18 22 26 26 26 28 27 24 23 22 25 20 18 17 17 16
22 20 21 21 18 17 19 20 19 18 18 17 14 15 16 15 13 15 14 15 18 20 23 24 24 24 23 21 19 18 17 18 19 19 19 19 20 18 15 12 10 11 13 14 12 12 11 10 11 12 13 14 14 12 12 12 11 12 12 13 13 13 14 15 16 17 18 21 23 24 33 34 33 34 32 32 31 31 31 30 24 23 23 22 22
25 21 19 18 17 19 20 21 19 19 20 18 16 15 17 17 16 16 15 17 19 22 24 25 25 24 24 22 20 19 20 20 20 20 21 21 20 19 17 13 11 12 13 14 14 14 14 14 14 14 15 15 15 13 13 13 12 13 14 15 14 15 16 17 19 21 23 24 25 26 27 34 36 36 35 33 33 33 33 33 33 33 33 33 30
24 21 19 16 15 18 20 20 20 20 20 19 17 15 15 16 16 18 18 19 20 23 25 25 24 24 23 22 20 20 21 20 19 18 19 19 19 18 17 15 14 13 15 16 16 15 16 16 16 17 16 16 16 15 13 14 14 14 15 17 16 18 nan nan nan 24 25 25 26 27 27 28 34 35 35 37 38 38 37 37 37 39 39 40 38
23 20 19 17 15 17 19 18 19 20 21 21 19 16 17 17 20 22 22 21 22 24 25 24 23 23 23 22 21 20 20 19 17 17 17 17 17 19 19 17 15 15 15 17 18 16 16 16 17 16 17 16 17 nan nan nan nan nan nan nan nan nan nan nan nan nan nan 26 27 28 28 28 28 30 33 38 38 38 38 39 40 40 40 40 39
22 21 19 16 16 17 17 18 20 21 22 22 20 18 19 20 22 23 23 23 23 25 24 23 23 22 22 22 21 20 19 18 19 17 16 17 18 20 20 18 15 16 16 16 17 17 18 18 17 17 nan nan nan nan nan nan nan nan nan nan nan nan nan nan nan nan nan 27 26 27 27 27 28 28 28 33 37 37 38 38 39 40 40 41 41
21 19 17 16 17 17 18 20 22 22 22 21 20 19 18 19 21 21 23 25 26 25 24 23 22 21 22 22 21 21 19 19 19 18 17 17 18 19 20 17 15 15 16 15 17 18 19 19 16 17 nan nan nan nan nan nan nan nan nan nan nan nan nan nan nan nan nan nan 27 27 27 28 28 29 29 29 30 37 37 37 38 39 40 41 42
18 16 15 17 19 20 21 24 24 24 22 21 21 22 22 21 21 23 23 25 25 23 22 23 22 22 23 23 22 21 20 21 21 19 19 18 17 19 18 16 14 15 15 16 17 18 18 20 18 17 nan nan nan nan nan nan nan nan nan nan nan nan nan nan nan nan nan nan 28 28 28 29 29 29 30 29 29 nan nan nan nan nan nan 39 40
14 13 12 15 17 19 22 24 25 24 22 24 25 26 25 24 24 25 25 25 23 22 22 23 23 23 22 23 22 22 22 23 21 19 18 17 17 17 16 14 12 14 14 15 17 17 18 19 20 nan nan nan nan nan nan nan nan nan nan nan nan nan nan nan nan nan nan nan nan nan nan 29 nan 29 28 28 28 30 nan nan nan nan nan nan nan
11 11 12 14 15 17 19 22 24 24 24 24 25 26 26 26 25 24 25 25 24 23 24 24 23 23 23 24 22 22 23 23 20 18 17 16 16 15 14 13 12 13 14 16 17 18 19 20 nan nan nan nan nan nan nan nan nan nan nan nan nan nan nan nan nan nan nan nan nan nan nan nan nan 27 27 27 27 28 30 nan nan nan nan nan nan
11 13 14 16 16 17 19 21 25 25 25 24 25 24 24 25 26 26 26 27 26 25 25 24 23 24 24 23 23 23 22 22 20 17 17 16 15 14 14 12 12 13 15 16 16 18 20 21 nan nan nan nan nan nan nan nan nan nan nan nan nan nan nan nan nan nan nan nan nan nan nan nan nan nan nan 27 27 27 nan nan nan nan nan nan nan
13 13 16 16 17 18 18 22 25 25 23 25 25 24 24 25 26 27 26 27 27 27 25 24 25 25 24 24 23 23 22 21 19 17 17 16 15 15 14 13 13 14 17 17 16 18 nan nan nan nan nan nan nan nan nan nan nan nan nan nan nan nan nan nan nan nan nan nan nan nan nan nan nan nan nan nan nan nan nan nan nan nan nan nan nan
15 15 15 16 16 18 20 22 22 21 24 25 24 24 26 26 25 26 26 25 26 26 25 25 26 25 25 24 23 22 21 19 18 17 17 16 15 15 14 14 13 16 17 17 17 18 nan nan nan nan nan nan nan nan nan nan nan nan nan nan nan nan nan nan nan nan nan nan nan nan nan nan nan nan nan nan nan nan nan nan nan nan nan nan nan
14 15 15 15 16 17 19 19 20 20 20 19 20 21 21 22 25 26 27 26 26 27 27 26 26 25 25 24 22 20 18 18 18 18 17 16 15 15 14 13 13 15 17 17 18 nan nan nan nan nan nan nan nan nan nan nan nan nan nan nan nan nan nan nan nan nan nan nan nan nan nan nan nan nan nan nan nan nan nan nan nan nan nan nan nan
15 16 15 16 16 16 17 18 18 19 17 16 18 21 22 24 26 27 29 28 26 27 28 26 25 25 24 23 20 18 17 18 18 18 16 15 15 14 14 13 14 14 17 19 nan nan nan nan nan nan nan nan nan nan nan nan nan nan nan nan nan nan nan nan nan nan nan nan nan nan nan nan nan nan nan nan nan nan nan nan nan nan nan nan nan
16 15 14 15 15 15 15 17 19 20 20 20 22 23 25 28 30 31 30 29 27 28 29 27 26 25 22 20 18 17 18 19 18 17 16 16 15 15 13 nan nan nan nan nan nan nan nan nan nan nan nan nan nan nan nan nan nan nan nan nan nan nan nan nan nan nan nan nan nan nan nan nan nan nan nan nan nan nan nan nan nan nan nan nan nan
15 15 15 14 13 13 14 17 20 22 23 25 24 24 28 30 30 31 32 32 29 28 29 26 24 23 20 17 15 16 18 19 18 18 17 16 15 nan nan nan nan nan nan nan nan nan nan nan nan nan nan nan nan nan nan nan nan nan nan nan nan nan nan nan nan nan nan nan nan nan nan nan nan nan nan nan nan nan nan nan nan nan nan nan nan
15 14 14 14 13 12 15 19 23 25 26 23 23 23 26 29 28 29 28 28 27 26 26 24 21 20 17 14 17 18 18 18 17 17 nan nan nan nan nan nan nan nan nan nan nan nan nan nan nan nan nan nan nan nan nan nan nan nan nan nan nan nan nan nan nan nan nan nan nan nan nan nan nan nan nan nan nan nan nan nan nan nan nan nan nan
14 14 13 12 11 13 17 22 25 27 22 20 21 23 25 25 26 24 25 26 28 25 25 22 20 17 16 18 19 20 19 18 nan nan nan nan nan nan nan nan nan nan nan nan nan nan nan nan nan nan nan nan nan nan nan nan nan nan nan nan nan nan nan nan nan nan nan nan nan nan nan nan nan nan nan nan nan nan nan nan nan nan nan nan nan
12 10 10 11 13 17 21 23 26 23 17 17 20 22 23 22 23 23 25 28 28 26 24 20 18 15 18 20 21 19 18 nan nan nan nan nan nan nan nan nan nan nan nan nan nan nan nan nan nan nan nan nan nan nan nan nan nan nan nan nan nan nan nan nan nan nan nan nan nan nan nan nan nan nan nan nan nan nan nan nan nan nan nan nan nan
10 9 11 14 17 21 23 24 25 21 18 17 20 20 20 19 20 22 25 26 26 23 21 18 16 15 21 23 22 19 17 nan nan nan nan nan nan nan nan nan nan nan nan nan nan nan nan nan nan nan nan nan nan nan nan nan nan nan nan nan nan nan nan nan nan nan nan nan nan nan nan nan nan nan nan nan nan nan nan nan nan nan nan nan nan
11 14 17 17 18 21 20 22 25 20 17 18 20 20 19 18 20 22 27 25 23 20 17 16 14 17 23 24 20 18 nan nan nan nan nan nan nan nan nan nan nan nan nan nan nan nan nan nan nan nan nan nan nan nan nan nan nan nan nan nan nan nan nan nan nan nan nan nan nan nan nan nan nan nan nan nan nan nan nan nan nan nan nan nan nan
14 17 18 17 18 19 20 22 23 19 18 19 20 20 19 19 21 22 25 25 21 19 17 16 16 20 23 20 17 nan nan nan nan nan nan nan nan nan nan nan nan nan nan nan nan nan nan nan nan nan nan nan nan nan nan nan nan nan nan nan nan nan nan nan nan nan nan nan nan nan nan nan nan nan nan nan nan nan nan nan nan nan nan nan nan
Wind_Direction
325 323 326 328 332 334 332 332 335 338 339 340 340 339 338 335 329 324 322 321 318 316 315 317 319 321 325 327 328 328 331 334 335 336 334 331 328 321 317 312 306 299 295 294 296 299 303 306 305 303 304 306 310 309 308 301 296 293 287 286 286 290 287 278 278 280 283 285 294 298 298 299 297 299 300 299 nan nan 299 295 291 300 299 297 nan
322 322 322 325 329 331 331 330 332 335 337 339 339 338 337 334 329 324 321 319 316 313 312 314 317 321 325 326 327 328 331 333 334 334 333 333 329 324 318 313 306 300 296 295 297 301 305 307 306 304 306 308 306 308 307 304 301 298 293 290 289 284 276 275 267 278 284 287 291 288 290 294 303 309 309 nan nan nan nan 297 291 nan 310 nan nan
313 318 320 324 328 330 328 328 329 332 334 337 337 336 336 332 328 323 319 317 314 312 311 312 314 319 323 325 327 328 330 332 334 335 334 334 330 324 319 313 308 302 298 298 299 302 305 305 304 304 307 310 312 nan 310 306 302 298 296 297 292 287 286 279 278 281 285 281 283 285 294 299 306 311 311 308 307 309 307 nan nan nan nan nan nan
316 318 318 324 328 327 327 327 327 329 333 335 335 335 335 332 326 321 317 315 314 311 309 309 312 317 323 325 326 326 328 331 333 334 333 333 329 324 319 311 307 305 301 300 301 302 303 304 304 307 310 312 315 315 311 307 303 300 300 296 300 298 296 297 299 299 299 296 295 295 312 nan 311 308 306 311 310 nan nan nan nan nan nan nan nan
314 318 320 321 324 325 326 326 326 328 331 332 332 333 333 330 324 319 317 315 313 309 307 309 311 315 321 323 323 324 326 328 331 333 332 331 328 325 321 316 309 303 299 300 300 299 302 304 305 309 313 315 318 317 314 310 310 308 306 311 309 309 310 308 307 307 307 309 304 nan nan nan 312 315 313 311 308 308 nan nan nan nan nan nan nan
318 321 320 320 321 324 326 324 325 327 329 330 330 332 331 327 323 319 316 315 313 309 306 307 308 312 318 320 320 321 323 325 327 330 330 328 327 326 324 318 311 302 300 298 296 296 300 302 307 310 312 315 317 317 316 315 316 318 319 321 323 324 321 328 318 300 313 318 312 nan nan nan nan 328 315 313 314 317 319 nan nan nan nan nan nan
317 320 318 320 321 323 323 323 324 326 327 327 328 329 328 326 322 319 317 314 311 307 304 304 306 309 315 318 317 319 321 324 326 328 330 331 331 331 326 319 310 301 292 286 284 285 289 300 305 308 311 314 317 319 321 324 324 327 329 328 327 328 333 342 352 345 331 324 nan nan nan nan 334 326 314 314 317 321 nan 310 nan nan nan nan nan
310 314 317 319 321 322 321 322 323 324 324 324 325 326 326 324 321 317 315 312 308 304 303 302 304 308 313 316 317 319 322 324 325 327 330 332 330 324 318 311 303 299 289 277 271 273 286 300 305 307 308 311 315 319 325 328 332 334 337 337 335 340 348 356 6 2 351 336 nan nan nan nan 338 321 326 322 322 322 321 317 316 nan nan nan nan
306 311 315 319 321 321 319 320 322 321 321 321 322 323 323 322 319 315 313 309 305 303 303 302 304 308 312 315 316 318 321 323 324 327 328 324 321 318 315 314 312 305 297 288 282 282 281 294 299 301 304 305 309 316 324 328 330 333 335 335 338 346 353 4 12 14 354 340 347 nan nan 346 344 338 328 328 328 326 324 318 317 321 nan nan nan
304 308 314 318 318 320 318 319 320 318 317 318 319 321 321 319 316 313 311 309 304 304 304 303 304 307 311 314 315 320 322 323 324 326 330 328 324 320 317 315 312 306 298 292 284 282 287 287 291 298 299 296 298 312 320 323 326 329 332 335 339 345 353 4 8 349 338 345 346 nan nan 348 345 340 333 329 329 325 324 323 323 nan nan nan nan
303 307 311 315 317 316 315 317 317 315 314 315 317 319 318 316 313 311 309 308 305 303 304 304 305 306 310 314 315 320 324 324 324 326 327 324 321 318 318 315 310 305 300 289 280 279 281 280 282 286 286 283 294 308 317 317 322 323 326 330 336 338 343 345 333 nan 339 344 344 nan 351 350 339 342 337 333 333 331 331 330 329 325 323 nan nan
302 306 308 311 315 311 313 315 313 312 312 312 315 315 314 312 310 308 308 308 303 301 302 302 302 304 310 314 316 321 323 322 325 329 328 325 322 321 322 323 319 316 309 300 289 280 274 271 265 268 268 271 282 295 302 306 311 317 321 325 325 320 307 305 326 nan nan 340 nan nan 353 346 nan 343 345 334 334 335 334 333 327 327 325 nan nan
305 306 305 307 308 313 313 312 311 310 309 310 312 312 310 308 306 305 305 305 302 300 300 299 300 304 310 314 316 320 321 319 321 323 325 324 322 323 325 324 323 320 314 303 287 274 268 262 258 251 248 255 268 284 293 299 307 317 320 314 307 288 282 290 nan nan nan 340 nan 343 348 346 nan 352 351 340 338 338 337 334 329 329 325 nan nan
308 307 302 305 310 316 313 310 308 308 307 307 308 307 306 304 303 301 302 305 300 296 297 297 300 306 310 312 314 319 318 317 317 320 324 325 326 326 325 325 322 319 314 305 287 270 259 253 247 237 234 240 255 275 291 300 308 316 319 317 311 300 287 314 322 nan nan 341 344 343 346 346 nan 356 351 345 341 340 338 334 331 328 328 nan nan
309 307 305 309 314 313 315 309 306 306 303 301 303 304 303 299 298 300 305 304 298 297 298 299 303 308 309 310 312 317 319 317 317 318 323 325 325 325 326 326 322 318 314 305 290 269 255 246 245 237 232 239 254 281 296 305 314 321 328 334 347 339 296 329 336 nan nan 344 344 346 348 nan 352 357 352 345 342 341 338 336 333 331 331 nan nan
301 302 306 307 309 310 307 309 307 305 301 301 303 304 301 299 301 304 306 303 299 298 299 302 306 308 309 310 314 319 318 314 314 317 322 324 324 322 322 321 318 312 308 303 295 280 258 243 238 234 236 242 261 280 299 308 317 329 336 350 358 359 337 327 340 nan nan 349 nan 348 351 nan 356 355 352 346 342 342 339 337 334 334 334 nan nan
295 297 303 306 306 304 306 306 308 307 304 305 306 305 300 301 304 306 307 303 301 301 300 303 304 306 308 309 312 315 315 313 312 315 320 323 324 320 318 317 314 311 305 299 295 291 272 245 229 224 227 236 250 262 280 301 319 341 346 350 360 10 358 325 333 343 nan nan nan 352 nan nan 355 355 353 349 345 344 342 339 338 337 337 nan nan
287 296 304 306 305 304 306 309 308 302 301 306 307 305 303 303 305 307 306 305 304 301 300 301 302 304 304 305 308 313 313 311 311 313 317 320 321 321 318 314 313 310 304 297 293 292 283 267 229 221 215 223 229 245 257 267 333 7 343 344 353 4 340 332 nan 347 350 354 353 351 nan nan 357 357 355 352 348 347 345 344 342 341 339 337 334
289 297 300 304 306 303 305 306 302 302 301 300 299 303 306 304 305 306 306 306 303 300 300 301 302 304 302 305 309 313 313 312 310 311 315 317 318 319 319 320 316 312 305 297 291 291 290 282 253 227 219 221 226 234 232 185 136 119 92 332 340 332 317 340 nan 357 360 1 355 nan nan 359 359 357 356 355 351 350 349 348 346 344 343 339 337
291 295 299 303 304 303 303 304 305 305 305 303 302 302 307 308 307 307 307 307 304 301 301 301 302 302 302 303 307 306 306 307 303 307 310 313 316 324 324 325 323 317 308 296 285 282 277 267 256 243 232 234 229 222 195 143 126 126 136 284 292 302 nan nan nan 6 3 4 4 1 359 3 1 358 357 356 354 352 352 351 349 348 347 343 340
291 295 300 305 304 303 301 299 305 307 306 305 303 304 309 311 310 310 309 306 303 300 299 299 299 298 297 298 295 299 305 305 298 302 303 317 315 315 321 322 318 312 301 290 274 261 245 234 229 227 232 236 240 223 148 133 128 115 134 172 280 315 335 344 356 1 2 0 4 3 9 8 3 360 359 357 355 353 352 352 352 352 351 346 342
294 294 294 296 294 296 298 298 302 307 305 303 300 303 306 307 303 302 299 299 300 298 293 295 298 292 297 295 295 298 297 299 294 291 298 309 311 312 315 316 313 308 304 290 280 260 238 228 217 214 219 227 216 nan nan nan nan nan 125 153 320 331 340 349 351 350 354 358 359 1 11 10 7 3 360 358 357 354 352 352 354 354 350 345 341
302 301 294 285 282 285 292 298 300 302 301 300 297 298 299 300 301 297 293 296 294 289 288 292 291 295 294 295 295 292 293 292 291 302 307 317 309 302 307 308 309 307 300 294 290 268 250 241 230 216 214 218 nan nan nan nan nan 95 182 nan nan nan nan nan nan nan 346 349 351 358 5 3 4 2 359 357 356 354 352 351 354 353 347 342 341
305 307 299 280 277 281 289 293 297 299 299 299 296 295 299 301 301 294 287 282 283 287 285 289 290 290 290 289 289 293 291 289 280 267 265 282 293 296 296 302 306 305 288 304 290 285 257 252 245 237 nan nan nan nan nan nan nan 341 346 nan nan nan nan nan nan nan 336 338 339 352 355 357 356 357 357 353 351 351 350 350 352 350 341 341 343
309 309 305 290 281 287 296 301 304 302 305 306 300 296 294 299 299 294 288 285 285 287 285 285 286 286 284 288 291 292 287 285 282 279 277 280 290 295 297 303 311 308 291 nan 304 307 283 258 255 258 255 260 264 280 305 327 333 335 339 340 341 nan nan nan 326 325 323 324 329 337 337 343 346 347 348 347 344 343 343 341 345 347 338 327 340
315 322 322 300 293 307 314 312 313 309 312 310 302 303 299 300 301 294 290 287 289 290 286 285 283 285 286 290 292 290 288 290 289 284 279 276 274 278 281 294 300 297 297 291 293 290 272 271 272 270 274 289 290 305 316 324 332 326 327 327 324 325 324 321 317 313 312 310 315 311 308 320 330 331 334 338 337 333 330 324 299 323 326 316 323
321 335 335 319 300 312 322 318 312 311 314 310 304 302 298 292 294 293 289 289 289 288 286 284 284 285 287 291 286 284 285 289 288 288 287 279 268 261 263 276 287 288 291 291 285 281 283 281 284 286 289 287 286 288 295 303 312 320 320 316 311 309 306 306 305 304 304 304 305 296 298 299 304 314 321 328 330 313 290 291 310 331 323 317 325
310 332 348 343 327 316 317 314 307 309 310 310 308 301 294 291 291 290 285 294 291 287 281 282 283 283 286 283 282 281 287 283 284 287 286 281 271 256 254 257 270 277 280 282 280 279 283 288 289 285 285 287 286 286 290 293 297 303 302 300 298 297 296 297 296 297 296 298 297 294 287 278 282 296 302 289 276 288 301 310 318 324 320 322 324
286 298 317 331 333 315 305 307 302 305 300 306 315 297 292 288 280 275 278 291 284 281 281 280 281 286 286 285 284 286 286 282 280 279 276 274 270 259 250 249 254 266 272 276 281 283 286 285 284 283 284 283 282 280 286 287 287 289 291 290 289 288 288 287 287 288 288 288 288 283 259 259 263 266 270 275 283 286 290 293 295 301 303 305 309
279 283 300 315 317 309 303 300 296 288 292 301 303 299 286 278 270 268 274 281 279 279 280 278 280 281 278 277 279 287 287 288 284 278 274 265 263 257 245 241 250 262 270 275 278 285 286 282 277 276 276 275 275 279 285 285 287 289 287 285 282 285 288 286 286 286 286 285 283 282 265 267 269 271 271 271 272 274 278 289 299 294 300 298 299
282 292 299 307 310 303 298 291 285 286 285 291 292 290 283 276 268 267 270 270 277 279 277 278 279 278 278 277 278 281 287 284 283 281 273 264 255 252 245 242 250 258 270 276 276 277 280 277 275 274 274 276 278 281 282 284 285 286 285 282 282 285 285 287 288 287 285 286 287 289 281 268 268 269 269 269 270 273 276 280 281 279 278 281 284
291 294 290 289 296 296 291 286 281 277 282 283 283 280 280 277 273 273 268 271 277 278 279 278 279 277 276 277 279 280 281 284 286 285 278 263 250 245 243 241 244 254 264 272 272 269 271 270 270 272 272 274 277 275 278 283 285 285 282 280 284 288 nan nan nan 289 289 289 290 289 288 283 271 268 269 270 271 271 271 271 273 272 270 270 274
283 284 282 283 290 286 285 281 276 275 277 277 277 270 267 267 272 273 273 273 275 278 279 279 276 274 274 275 274 273 275 282 283 277 271 262 252 244 241 241 245 255 260 265 268 265 264 264 264 270 272 272 271 nan nan nan nan nan nan nan nan nan nan nan nan nan nan 289 289 288 287 287 285 275 269 270 270 269 267 267 266 266 267 268 267
283 275 273 279 270 267 270 274 275 277 278 276 274 268 262 264 268 272 272 270 273 278 280 277 273 270 270 270 268 267 270 273 278 274 272 262 247 239 242 242 243 253 258 260 262 260 260 259 259 264 nan nan nan nan nan nan nan nan nan nan nan nan nan nan nan nan nan 288 290 289 289 290 288 288 286 274 272 271 267 266 265 264 265 265 265
277 278 286 275 265 263 268 273 274 274 273 272 270 265 262 266 266 267 268 271 275 278 279 274 270 268 268 264 262 262 264 268 270 275 270 263 249 238 237 241 247 255 259 258 263 260 262 262 262 267 nan nan nan nan nan nan nan nan nan nan nan nan nan nan nan nan nan nan 289 289 289 291 290 290 291 290 282 271 269 266 265 264 262 263 263
287 285 280 266 260 258 262 269 269 271 270 268 264 262 263 265 267 267 264 269 276 277 275 270 269 267 264 262 257 259 261 264 268 271 272 262 249 237 235 241 249 258 261 261 263 263 268 271 268 271 nan nan nan nan nan nan nan nan nan nan nan nan nan nan nan nan nan nan 291 291 291 290 290 289 287 292 291 nan nan nan nan nan nan 262 262
292 296 285 271 264 263 266 268 271 272 268 263 263 265 267 267 264 262 264 271 277 275 270 269 266 264 262 261 258 260 262 265 267 268 270 262 247 239 238 245 251 260 263 265 267 270 273 277 274 nan nan nan nan nan nan nan nan nan nan nan nan nan nan nan nan nan nan nan nan nan nan 289 nan 284 289 289 291 290 nan nan nan nan nan nan nan
293 294 289 285 274 265 266 268 270 271 267 266 267 268 269 268 263 260 266 274 276 271 267 265 264 263 261 261 261 261 260 261 263 263 264 256 242 240 241 244 252 261 265 268 271 273 275 278 nan nan nan nan nan nan nan nan nan nan nan nan nan nan nan nan nan nan nan nan nan nan nan nan nan 290 290 290 289 291 287 nan nan nan nan nan nan
284 289 287 280 275 273 270 271 271 269 266 266 269 269 268 263 261 263 266 271 268 263 263 264 263 261 259 261 260 259 258 258 259 256 252 245 239 237 241 239 249 260 265 268 269 272 274 275 nan nan nan nan nan nan nan nan nan nan nan nan nan nan nan nan nan nan nan nan nan nan nan nan nan nan nan 293 293 291 nan nan nan nan nan nan nan
284 288 289 285 282 279 272 268 268 268 268 267 270 270 269 266 266 267 267 268 264 262 258 261 260 258 258 258 257 258 258 258 256 249 241 236 234 234 240 238 248 259 264 267 267 270 nan nan nan nan nan nan nan nan nan nan nan nan nan nan nan nan nan nan nan nan nan nan nan nan nan nan nan nan nan nan nan nan nan nan nan nan nan nan nan
292 291 286 283 283 285 281 279 275 273 274 276 275 277 276 271 266 267 271 272 268 262 257 255 255 255 256 255 255 256 255 256 251 240 231 232 229 231 238 242 250 261 267 270 272 274 nan nan nan nan nan nan nan nan nan nan nan nan nan nan nan nan nan nan nan nan nan nan nan nan nan nan nan nan nan nan nan nan nan nan nan nan nan nan nan
289 290 289 284 283 282 282 282 280 274 275 278 279 277 273 274 272 271 273 274 270 262 256 252 255 254 251 250 250 249 251 253 246 233 227 222 228 232 238 247 256 266 271 274 275 nan nan nan nan nan nan nan nan nan nan nan nan nan nan nan nan nan nan nan nan nan nan nan nan nan nan nan nan nan nan nan nan nan nan nan nan nan nan nan nan
287 290 287 288 286 283 280 278 278 277 270 273 278 277 269 267 268 271 275 269 256 254 256 256 256 255 249 246 244 242 245 244 236 232 230 226 232 240 242 248 254 267 273 270 nan nan nan nan nan nan nan nan nan nan nan nan nan nan nan nan nan nan nan nan nan nan nan nan nan nan nan nan nan nan nan nan nan nan nan nan nan nan nan nan nan
287 283 288 292 285 282 282 277 276 270 267 274 277 270 266 263 263 269 268 265 262 253 253 254 254 251 244 242 240 237 234 235 232 232 236 237 240 247 254 nan nan nan nan nan nan nan nan nan nan nan nan nan nan nan nan nan nan nan nan nan nan nan nan nan nan nan nan nan nan nan nan nan nan nan nan nan nan nan nan nan nan nan nan nan nan
282 287 289 288 280 289 284 276 268 264 264 275 279 274 268 266 266 266 266 261 252 250 254 252 251 249 245 235 235 234 230 231 232 235 240 244 245 nan nan nan nan nan nan nan nan nan nan nan nan nan nan nan nan nan nan nan nan nan nan nan nan nan nan nan nan nan nan nan nan nan nan nan nan nan nan nan nan nan nan nan nan nan nan nan nan
288 288 287 287 284 281 274 265 257 258 265 278 283 277 275 277 273 269 267 263 258 253 258 264 254 242 241 239 235 234 237 236 232 235 nan nan nan nan nan nan nan nan nan nan nan nan nan nan nan nan nan nan nan nan nan nan nan nan nan nan nan nan nan nan nan nan nan nan nan nan nan nan nan nan nan nan nan nan nan nan nan nan nan nan nan
288 283 282 279 278 268 262 259 259 258 269 281 281 274 272 271 270 266 264 263 262 252 257 255 250 242 240 238 236 235 236 238 nan nan nan nan nan nan nan nan nan nan nan nan nan nan nan nan nan nan nan nan nan nan nan nan nan nan nan nan nan nan nan nan nan nan nan nan nan nan nan nan nan nan nan nan nan nan nan nan nan nan nan nan nan
287 284 274 265 269 262 257 257 258 273 280 277 276 275 275 272 271 268 259 257 262 266 262 249 237 239 242 241 241 236 231 nan nan nan nan nan nan nan nan nan nan nan nan nan nan nan nan nan nan nan nan nan nan nan nan nan nan nan nan nan nan nan nan nan nan nan nan nan nan nan nan nan nan nan nan nan nan nan nan nan nan nan nan nan nan
281 279 271 268 265 265 266 275 287 283 267 271 274 277 279 278 272 264 260 261 268 266 261 246 236 242 249 244 242 235 229 nan nan nan nan nan nan nan nan nan nan nan nan nan nan nan nan nan nan nan nan nan nan nan nan nan nan nan nan nan nan nan nan nan nan nan nan nan nan nan nan nan nan nan nan nan nan nan nan nan nan nan nan nan nan
271 269 273 274 272 277 284 280 271 270 269 271 278 280 275 273 264 261 269 271 269 264 258 252 244 246 248 244 239 232 nan nan nan nan nan nan nan nan nan nan nan nan nan nan nan nan nan nan nan nan nan nan nan nan nan nan nan nan nan nan nan nan nan nan nan nan nan nan nan nan nan nan nan nan nan nan nan nan nan nan nan nan nan nan nan
273 276 278 278 272 277 277 275 266 268 271 265 273 278 275 272 268 268 273 275 271 266 262 256 253 247 245 241 236 nan nan nan nan nan nan nan nan nan nan nan nan nan nan nan nan nan nan nan nan nan nan nan nan nan nan nan nan nan nan nan nan nan nan nan nan nan nan nan nan nan nan nan nan nan nan nan nan nan nan nan nan nan nan nan nan